This is the latest recevied weather packets stored in our database for station/object WB3IGR. If no packets are shown the sender has not sent any weather packets the latest 10 day(s).
| Time | Temp. | Humidity | Pressure | Rain* | Wind** | Luminosity | Snow |
|---|---|---|---|---|---|---|---|
| 1777351349 | 11.11° C | 70% | 1024.7 hPa | 0 mm | - | 0 W/m² | - |
| 1777351043 | 11.67° C | 70% | 1024.8 hPa | 0 mm | - | 0 W/m² | - |
| 1777350740 | 11.67° C | 69% | 1024.8 hPa | 0 mm | - | 0 W/m² | - |
| 1777350436 | 11.67° C | 68% | 1024.9 hPa | 0 mm | - | 0 W/m² | - |
| 1777350133 | 11.67° C | 67% | 1024.7 hPa | 0 mm | - | 0 W/m² | - |
| 1777349830 | 11.67° C | 68% | 1024.8 hPa | 0 mm | - | 0 W/m² | - |
| 1777349528 | 11.67° C | 68% | 1024.7 hPa | 0 mm | - | 0 W/m² | - |
| 1777349226 | 11.67° C | 66% | 1024.6 hPa | 0 mm | - | 0 W/m² | - |
| 1777348923 | 12.22° C | 66% | 1024.5 hPa | 0 mm | - | 0 W/m² | - |
| 1777348621 | 12.22° C | 66% | 1024.4 hPa | 0 mm | - | 0 W/m² | - |
| 1777348318 | 12.22° C | 65% | 1024.7 hPa | 0 mm | - | 0 W/m² | - |
| 1777348016 | 12.78° C | 65% | 1024.6 hPa | 0 mm | - | 0 W/m² | - |
| 1777347714 | 12.22° C | 66% | 1024.7 hPa | 0 mm | - | 0 W/m² | - |
| 1777347411 | 12.22° C | 66% | 1024.6 hPa | 0 mm | - | 0 W/m² | - |
| 1777347106 | 12.78° C | 66% | 1024.7 hPa | 0 mm | - | 0 W/m² | - |
| 1777346802 | 12.78° C | 65% | 1024.7 hPa | 0 mm | - | 0 W/m² | - |
| 1777346499 | 12.78° C | 65% | 1024.9 hPa | 0 mm | - | 0 W/m² | - |
| 1777346196 | 12.78° C | 66% | 1024.8 hPa | 0 mm | - | 0 W/m² | - |
| 1777345893 | 12.78° C | 64% | 1024.9 hPa | 0 mm | - | 0 W/m² | - |
| 1777345591 | 12.78° C | 65% | 1024.7 hPa | 0 mm | - | 0 W/m² | - |
| 1777345287 | 13.33° C | 65% | 1024.7 hPa | 0 mm | - | 0 W/m² | - |
| 1777344984 | 12.78° C | 65% | 1024.9 hPa | 0 mm | - | 0 W/m² | - |
| 1777344680 | 13.33° C | 66% | 1024.8 hPa | 0 mm | - | 0 W/m² | - |
| 1777344376 | 13.33° C | 65% | 1025 hPa | 0 mm | - | 0 W/m² | - |
| 1777344074 | 13.33° C | 66% | 1025 hPa | 0 mm | - | 0 W/m² | - |
* Rain latest hour (hover to see other rain measurements)
** Current wind speed in m/s (hover to see current wind gust speed)